Location: State Camp
(41.2367°N, 77.7828°W)
Time: 03:02:24
(UTC-04:00)

Amateur Radio Satellites - All Passes

Search period start: 25 October 2014 02:32
Search period end: 26 October 2014 02:32
Location: State Camp, 41.2367°N, 77.7828°W

Satellite Date Start Highest point End Downlink Frequencies (MHz)
Time Altitude Azimuth
Gurwin Techsat 1B 25 Oct 02:48:46 02:52:09 17° 91° (E) 02:55:30 435.225 FM
Oscar 19 25 Oct 02:54:48 02:59:57 89° 104° (ESE) 03:05:04 437.125 CW, 437.150 USB
Oscar 10/S400 25 Oct 02:56:31 03:27:03 12° 251° (WSW) 04:08:58 145.825 - 145.975 CW/USB, Beacon 145.810 USB
TMSAT-1 25 Oct 03:00:07 03:03:16 16° 91° (E) 03:06:25 436.925 FM
AO-27 25 Oct 03:12:48 03:17:57 54° 100° (E) 03:23:02 436.795 MHz FM
AO-Echo 25 Oct 03:34:35 03:39:54 73° 286° (WNW) 03:45:11 ?
Oscar 16 25 Oct 03:41:02 03:45:37 34° 292° (WNW) 03:50:12 437.025 USB, Beacon 2401.1428
JAS-1B 25 Oct 03:43:01 03:49:29 56° 289° (WNW) 03:57:10 435.800 - 435.900 CW/SSB
Sapphire 25 Oct 03:43:02 03:47:50 34° 110° (ESE) 03:52:41 437.095 MHz 1200 baud AX-25 AFSK
Uribyol 2 25 Oct 04:00:32 04:05:36 53° 289° (WNW) 04:10:37 436.500 FM
PCSat 25 Oct 04:04:58 04:10:15 57° 114° (ESE) 04:15:34 145.825 MHz
ITAMSAT 1 25 Oct 04:06:37 04:11:40 50° 289° (WNW) 04:16:40 435.822 SSB
RS-15 25 Oct 04:25:24 04:33:28 22° 14° (NNE) 04:41:42 29.354 - 29.394 USB, Beacon 29.352 USB
Gurwin Techsat 1B 25 Oct 04:27:16 04:32:31 61° 288° (WNW) 04:37:43 435.225 FM
OPAL 25 Oct 04:29:43 04:33:55 26° 63° (ENE) 04:38:06 ?
Oscar 19 25 Oct 04:36:36 04:38:31 12° 301° (WNW) 04:40:26 437.125 CW, 437.150 USB
TMSAT-1 25 Oct 04:38:22 04:43:38 64° 287° (WNW) 04:48:52 436.925 FM
AO-27 25 Oct 04:53:18 04:57:02 20° 297° (WNW) 05:00:45 436.795 MHz FM
JAS-2 25 Oct 05:11:53 05:16:54 18° 87° (E) 05:21:53 435.800 - 435.900 CW/SSB, 435.910 FM
AO-Echo 25 Oct 05:17:07 05:17:43 10° 303° (WNW) 05:18:19 ?
AO-7 25 Oct 05:18:22 05:26:34 58° 103° (ESE) 05:34:44 29.400 - 29.500 MHz
Uosat F 25 Oct 05:19:47 05:24:40 47° 100° (E) 05:29:30 435.120 FM
Sapphire 25 Oct 05:26:15 05:31:12 36° 308° (NW) 05:36:12 437.095 MHz 1200 baud AX-25 AFSK
PCSat 25 Oct 05:49:43 05:54:02 24° 313° (NW) 05:58:22 145.825 MHz
OPAL 25 Oct 06:07:47 06:12:36 39° 260° (W) 06:17:23 ?
STRAND 1 25 Oct 06:14:25 06:18:38 27° 66° (ENE) 06:22:53 ?
Hamsat 25 Oct 06:22:29 06:26:06 28° 96° (E) 06:29:44 145.90 MHz
RS-15 25 Oct 06:38:40 06:49:25 50° 46° (NE) 07:00:32 29.354 - 29.394 USB, Beacon 29.352 USB
JAS-2 25 Oct 06:54:54 07:02:45 89° 105° (ESE) 07:10:34 435.800 - 435.900 CW/SSB, 435.910 FM
Uosat F 25 Oct 06:59:20 07:03:07 22° 296° (WNW) 07:06:52 435.120 FM
AO-7 25 Oct 07:11:45 07:18:56 34° 302° (WNW) 07:26:07 29.400 - 29.500 MHz
Saudisat 1A 25 Oct 07:13:15 07:16:49 25° 113° (ESE) 07:20:24 436.775 MHz
SO-67 25 Oct 07:25:38 07:27:47 16° 93° (E) 07:29:55 435.3500 MHz FM
STRAND 1 25 Oct 07:52:53 07:57:38 38° 262° (W) 08:02:26 ?
Hamsat 25 Oct 07:58:33 08:01:56 24° 291° (WNW) 08:05:20 145.90 MHz
JAS-2 25 Oct 08:41:22 08:46:47 21° 302° (WNW) 08:52:15 435.800 - 435.900 CW/SSB, 435.910 FM
RS-15 25 Oct 08:51:14 09:01:54 53° 248° (WSW) 09:13:03 29.354 - 29.394 USB, Beacon 29.352 USB
Saudisat 1A 25 Oct 08:52:09 08:56:12 36° 310° (NW) 09:00:18 436.775 MHz
SO-67 25 Oct 08:57:49 09:00:48 28° 288° (WNW) 09:03:46 435.3500 MHz FM
MaSat-1 25 Oct 09:03:05 09:05:08 20° 56° (NE) 09:07:03 437.345 MHz
PANSAT 25 Oct 09:26:52 09:28:25 12° 180° (S) 09:29:59 not established
HO-68 25 Oct 09:29:20 09:35:49 35° 97° (E) 09:42:14 435.675 MHz FM
Oscar 11 25 Oct 10:14:42 10:18:18 25° 95° (E) 10:21:52 145.825 FM, Beacon 2401.500 USB
KITSAT 1 25 Oct 11:04:30 11:09:43 19° 102° (ESE) 11:14:56 435.175 FM
ZACube-1 25 Oct 11:05:02 11:09:00 37° 98° (E) 11:12:53 437.345 MHz
UKube-1 25 Oct 11:09:05 11:13:27 75° 285° (WNW) 11:17:48 145.840 MHz, 145.915 MHz
HO-68 25 Oct 11:16:50 11:23:36 46° 295° (WNW) 11:30:21 435.675 MHz FM
FUNcube-1 25 Oct 11:49:30 11:53:44 66° 285° (WNW) 11:57:52 145.950 - 145.970 MHz USB
Oscar 11 25 Oct 11:50:46 11:54:25 28° 291° (WNW) 11:58:04 145.825 FM, Beacon 2401.500 USB
ISS 25 Oct 12:22:10 12:24:59 26° 135° (SE) 12:27:48 145.800 FM
Sapphire 25 Oct 12:30:41 12:35:26 30° 50° (NE) 12:40:09 437.095 MHz 1200 baud AX-25 AFSK
Oscar 19 25 Oct 12:34:51 12:38:02 17° 62° (ENE) 12:41:12 437.125 CW, 437.150 USB
JAS-1B 25 Oct 12:41:28 12:45:20 19° 61° (ENE) 12:49:09 435.800 - 435.900 CW/SSB
ZACube-1 25 Oct 12:42:10 12:45:07 19° 294° (WNW) 12:48:01 437.345 MHz
Oscar 10/S400 25 Oct 12:43:52 13:01:47 28° 151° (SSE) 13:17:42 145.825 - 145.975 CW/USB, Beacon 145.810 USB
PCSat 25 Oct 12:52:55 12:58:09 46° 55° (NE) 13:03:20 145.825 MHz
SO-50 25 Oct 12:54:33 12:58:48 44° 117° (ESE) 13:03:11 436.795 FM
KITSAT 1 25 Oct 12:55:57 13:04:03 88° 300° (WNW) 13:12:11 435.175 FM
AO-27 25 Oct 12:56:00 12:57:27 11° 57° (ENE) 12:58:53 436.795 MHz FM
AO-Echo 25 Oct 13:10:54 13:14:10 18° 62° (ENE) 13:17:29 ?
Oscar 16 25 Oct 13:18:41 13:23:31 42° 70° (ENE) 13:28:21 437.025 USB, Beacon 2401.1428
Uribyol 2 25 Oct 13:39:49 13:44:16 29° 66° (ENE) 13:48:45 436.500 FM
ITAMSAT 1 25 Oct 13:45:54 13:50:26 31° 67° (ENE) 13:55:00 435.822 SSB
ISS 25 Oct 13:58:24 14:01:33 39° 331° (NNW) 14:04:44 145.800 FM
Gurwin Techsat 1B 25 Oct 14:09:34 14:13:59 28° 66° (ENE) 14:18:25 435.225 FM
Oscar 19 25 Oct 14:11:43 14:16:50 64° 258° (WSW) 14:21:57 437.125 CW, 437.150 USB
Sapphire 25 Oct 14:13:52 14:18:59 43° 248° (WSW) 14:24:03 437.095 MHz 1200 baud AX-25 AFSK
UOSAT-12 25 Oct 14:15:22 14:19:16 28° 113° (ESE) 14:23:16 437.025 FM, 437.400 FM
TMSAT-1 25 Oct 14:20:31 14:24:49 26° 65° (ENE) 14:29:08 436.925 FM
AO-7 25 Oct 14:28:46 14:33:51 18° 49° (NE) 14:38:56 29.400 - 29.500 MHz
JAS-1B 25 Oct 14:29:42 14:35:36 59° 258° (WSW) 14:41:12 435.800 - 435.900 CW/SSB
AO-27 25 Oct 14:30:53 14:36:05 82° 75° (ENE) 14:41:21 436.795 MHz FM
SO-50 25 Oct 14:35:52 14:39:33 24° 316° (NW) 14:43:20 436.795 FM
PCSat 25 Oct 14:36:54 14:41:16 25° 252° (WSW) 14:45:37 145.825 MHz
AO-Echo 25 Oct 14:47:38 14:52:25 56° 260° (W) 14:57:25 ?
KITSAT 1 25 Oct 14:54:12 15:00:36 25° 323° (NW) 15:07:02 435.175 FM
Oscar 16 25 Oct 14:58:56 15:03:01 23° 266° (W) 15:07:06 437.025 USB, Beacon 2401.1428
Uribyol 2 25 Oct 15:18:52 15:23:37 35° 263° (W) 15:28:24 436.500 FM
ITAMSAT 1 25 Oct 15:25:12 15:29:51 33° 263° (W) 15:34:33 435.822 SSB
ISS 25 Oct 15:36:52 15:38:56 15° 351° (N) 15:41:00 145.800 FM
Saudisat 1A 25 Oct 15:39:25 15:42:59 23° 45° (NE) 15:46:33 436.775 MHz
Gurwin Techsat 1B 25 Oct 15:48:51 15:53:46 38° 262° (W) 15:58:43 435.225 FM
UOSAT-12 25 Oct 15:54:59 15:59:17 36° 311° (NW) 16:03:40 437.025 FM, 437.400 FM
TMSAT-1 25 Oct 15:59:31 16:04:30 41° 262° (W) 16:09:31 436.925 FM
AO-27 25 Oct 16:14:23 16:16:13 12° 271° (W) 16:18:03 436.795 MHz FM
AO-7 25 Oct 16:17:04 16:25:18 76° 69° (ENE) 16:33:35 29.400 - 29.500 MHz
Uosat F 25 Oct 16:32:56 16:37:53 65° 73° (ENE) 16:42:54 435.120 FM
KITSAT 1 25 Oct 16:57:32 16:59:37 11° 352° (N) 17:01:42 435.175 FM
JAS-2 25 Oct 17:07:24 17:12:54 39° 65° (ENE) 17:19:06 435.800 - 435.900 CW/SSB, 435.910 FM
ISS 25 Oct 17:14:27 17:16:38 16° 12° (NNE) 17:18:50 145.800 FM
Hamsat 25 Oct 17:16:17 17:19:26 21° 67° (ENE) 17:22:34 145.90 MHz
Saudisat 1A 25 Oct 17:18:32 17:22:44 43° 243° (WSW) 17:26:55 436.775 MHz
AO-7 25 Oct 18:12:41 18:18:50 23° 267° (W) 18:25:01 29.400 - 29.500 MHz
Uosat F 25 Oct 18:14:27 18:17:07 14° 269° (W) 18:19:48 435.120 FM
OPAL 25 Oct 18:17:21 18:22:12 52° 102° (ESE) 18:27:00 ?
ISS 25 Oct 18:50:41 18:53:57 48° 31° (NNE) 18:57:11 145.800 FM
Hamsat 25 Oct 18:51:23 18:55:10 33° 263° (W) 18:58:58 145.90 MHz
JAS-2 25 Oct 18:52:39 18:58:00 35° 267° (W) 19:04:01 435.800 - 435.900 CW/SSB, 435.910 FM
KITSAT 1 25 Oct 18:54:52 18:59:22 16° 24° (NNE) 19:03:51 435.175 FM
SO-67 25 Oct 19:29:36 19:33:02 88° 78° (ENE) 19:36:29 435.3500 MHz FM
OPAL 25 Oct 19:57:12 20:00:41 19° 299° (WNW) 20:04:09 ?
HO-68 25 Oct 19:58:36 20:04:24 28° 59° (ENE) 20:10:13 435.675 MHz FM
STRAND 1 25 Oct 20:02:59 20:08:10 73° 103° (ESE) 20:13:17 ?
ISS 25 Oct 20:27:53 20:30:25 20° 227° (SW) 20:32:56 145.800 FM
KITSAT 1 25 Oct 20:49:23 20:57:08 47° 50° (NE) 21:04:49 435.175 FM
RS-15 25 Oct 21:05:03 21:13:30 26° 103° (ESE) 21:21:50 29.354 - 29.394 USB, Beacon 29.352 USB
Oscar 11 25 Oct 21:10:08 21:13:24 21° 67° (ENE) 21:16:39 145.825 FM, Beacon 2401.500 USB
FUNcube-1 25 Oct 21:13:10 21:14:00 10° 61° (ENE) 21:14:50 145.950 - 145.970 MHz USB
SO-50 25 Oct 21:25:52 21:30:29 43° 51° (NE) 21:35:08 436.795 FM
STRAND 1 25 Oct 21:43:53 21:46:43 15° 300° (WNW) 21:49:33 ?
HO-68 25 Oct 21:44:34 21:51:37 61° 258° (WSW) 21:58:44 435.675 MHz FM
ZACube-1 25 Oct 22:01:12 22:05:18 33° 70° (ENE) 22:09:21 437.345 MHz
UKube-1 25 Oct 22:04:11 22:08:32 87° 256° (WSW) 22:12:56 145.840 MHz, 145.915 MHz
UOSAT-12 25 Oct 22:44:33 22:48:36 27° 46° (NE) 22:52:35 437.025 FM, 437.400 FM
KITSAT 1 25 Oct 22:44:59 22:52:28 43° 250° (WSW) 22:59:55 435.175 FM
FUNcube-1 25 Oct 22:45:07 22:49:43 85° 257° (WSW) 22:54:15 145.950 - 145.970 MHz USB
Oscar 11 25 Oct 22:45:24 22:49:21 34° 263° (W) 22:53:19 145.825 FM, Beacon 2401.500 USB
SO-50 25 Oct 23:06:54 23:10:50 25° 248° (WSW) 23:14:45 436.795 FM
RS-15 25 Oct 23:13:33 23:24:34 80° 304° (WNW) 23:35:35 29.354 - 29.394 USB, Beacon 29.352 USB
ZACube-1 25 Oct 23:38:00 23:41:42 24° 265° (W) 23:45:23 437.345 MHz
MaSat-1 26 Oct 00:13:39 00:17:45 69° 296° (WNW) 00:21:28 437.345 MHz
UOSAT-12 26 Oct 00:24:28 00:28:52 40° 244° (WSW) 00:33:10 437.025 FM, 437.400 FM
RS-15 26 Oct 01:29:48 01:38:54 29° 331° (NNW) 01:48:07 29.354 - 29.394 USB, Beacon 29.352 USB
Oscar 16 26 Oct 01:31:51 01:34:35 14° 90° (E) 01:37:18 437.025 USB, Beacon 2401.1428
ITAMSAT 1 26 Oct 02:02:08 02:02:27 10° 88° (E) 02:02:45 435.822 SSB
JAS-1B 26 Oct 02:11:31 02:17:51 38° 99° (E) 02:25:14 435.800 - 435.900 CW/SSB
